Location: Poughquag
(41.6090°N, 73.6820°W)
Time: 20:41:09
(UTC-05:00)

Transit 2A - Pass Details

Date: 09 December 2023
Orbit: 600 x 953 km, 66.7° (Epoch: 23 February)

Event Time Altitude Azimuth Distance (km) Brightness Sun altitude
Rises 12:37:40 0° 158° (SSE) 3,246 10.1 24.5°
Reaches altitude 10° 12:41:39 10° 129° (SE) 2,233 8.8 24.3°
Maximum altitude 12:43:35 12° 106° (ESE) 2,048 8.3 24.2°
Drops below altitude 10° 12:45:27 10° 83° (E) 2,154 8.2 24.1°
Sets 12:49:07 0° 53° (NE) 2,999 8.6 24.0°
